Location: *
(51.0333°S, 178.4667°E)
Time: 12:46:04
(UTC+00:00)

STARLINK-41 - Pass Details

Date: 15 November 2019
Orbit: 529 x 530 km, 53.0° (Epoch: 14 December)

Event Time Altitude Azimuth Distance (km) Brightness Sun altitude
Rises 08:59:24 0° 272° (W) 2,741 7.8 -11.0°
Reaches altitude 10° 09:01:40 10° 269° (W) 1,844 6.9 -11.3°
Maximum altitude 09:05:51 67° 186° (S) 604 4.0 -11.7°
Drops below altitude 10° 09:10:00 10° 102° (ESE) 1,831 6.0 -12.1°
Sets 09:12:15 0° 99° (E) 2,720 6.9 -12.3°
Enters shadow 09:12:16 - 99° (E) 2,728 6.9 -12.3°
